星链-6164 (STARLINK-6164 )

导读 | 豆包AI

STARLINK-6164是美国太空探索技术公司(SpaceX)旗下星链(Starlink)星座的一颗通信卫星,于2023年6月23日发射升空。作为星链全球卫星互联网星座的组成部分,它运行在近地轨道,依托星链星座的设计,为全球范围内用户提供低延迟高速互联网接入服务,助力星链实现覆盖偏远地区、航空航海场景及手机直连通信的目标,推动全球卫星互联网的普及与发展。

Basic Information
目录编号:
57152
目录名称:
STARLINK-6164
国际标识:
2023-090BD
轨道中心:
EARTH
卫星名称:
星链-6164
卫星全名:
星链-6164 (STARLINK-6164 )
卫星状态:
在轨 (已飞行1042 天)
发射日期:
2023-06-23 UTC
国别 :
美国 (US)
星等 :
--
Orbit Information
数据来源 国际轨道数据 AOE轨道数据
星历时间 2026-04-30T08:18:23+0800
9小时前
查看轨道信息
2026-04-28T05:00:00+0800
2天前
查看轨道信息
半长轴 6861.193km 6861.2km
偏心率 0.0001137 0.0001573
轨道倾角 43.002° 43.002°
近地点辐角 271.594° 250.647°
升交点赤经 333.397° 345.473°
平近点角 88.478° 219.413°
近地点 482.275km 481.983km
远地点 483.837km 484.143km
周期 94.267分钟 94.267分钟
每日圈数 15.27578 15.275755
Detailed Information
固有亮度:
5
最大亮度:
2.4
卫星平台:
Starlink v1.5
覆盖范围:
全球
运营商:
太空探索技术公司
运营商所在国:
美国
制造商(研发单位):
太空探索技术公司
制造商所在国:
美国
使用方式:
暂无
Satellite Introduction
星链(Starlink)计划是由太空探索技术公司(SpaceX)提出的一个巨型低轨卫星互联网星座项目,计划在2019年至2024年间在太空搭建由约1.2万颗卫星组成的“星链”网络,其中1584颗将部署在地球上空550千米处的近地轨道,并从2020年开始工作。该卫星仍在工作。
2D Orbit Map
3D Orbit Map
Orbit Altitude Analysis Chart
Orbit Inclination Analysis Chart
Orbit Comprehensive Analysis Chart
View Comprehensive Chart